Time,TemperatureF,DewpointF,PressureIn,WindDirection,WindDirectionDegrees,WindSpeedMPH,WindSpeedGustMPH,Humidity,HourlyPrecipIn,Conditions,Clouds,dailyrainin,SoftwareType,DateUTC
2013-08-17 00:01:00,59.6,54.0,30.21,WNW,289,0.0,-999.0,82,-99.99,,,0.00,weatherlink.com 1.10,2013-08-17 04:01:00,
2013-08-17 00:16:00,59.5,54.0,30.21,WNW,289,0.0,-999.0,83,-99.99,,,0.00,weatherlink.com 1.10,2013-08-17 04:16:00,
2013-08-17 00:31:00,59.0,54.0,30.22,WNW,289,0.0,-999.0,83,-99.99,,,0.00,weatherlink.com 1.10,2013-08-17 04:31:00,
2013-08-17 00:46:00,59.0,54.0,30.22,WNW,289,0.0,-999.0,84,-99.99,,,0.00,weatherlink.com 1.10,2013-08-17 04:46:00,
2013-08-17 01:01:00,58.5,54.0,30.22,WNW,289,0.0,-999.0,85,-99.99,,,0.00,weatherlink.com 1.10,2013-08-17 05:01:00,
2013-08-17 01:16:00,58.5,54.0,30.22,WNW,289,0.0,-999.0,85,-99.99,,,0.00,weatherlink.com 1.10,2013-08-17 05:16:00,
2013-08-17 01:31:00,58.3,54.0,30.22,WNW,289,0.0,-999.0,86,-99.99,,,0.00,weatherlink.com 1.10,2013-08-17 05:31:00,
2013-08-17 01:46:00,58.1,54.0,30.22,WNW,289,0.0,-999.0,86,-99.99,,,0.00,weatherlink.com 1.10,2013-08-17 05:46:00,
2013-08-17 02:01:00,57.9,54.0,30.22,WNW,289,0.0,-999.0,87,-99.99,,,0.00,weatherlink.com 1.10,2013-08-17 06:01:00,
2013-08-17 02:16:00,57.8,54.0,30.22,WNW,289,0.0,-999.0,88,-99.99,,,0.00,weatherlink.com 1.10,2013-08-17 06:16:00,
2013-08-17 02:31:00,57.6,54.0,30.22,WNW,289,0.0,-999.0,88,-99.99,,,0.00,weatherlink.com 1.10,2013-08-17 06:31:00,
2013-08-17 02:46:00,57.4,54.0,30.22,WNW,289,0.0,-999.0,88,-99.99,,,0.00,weatherlink.com 1.10,2013-08-17 06:46:00,
2013-08-17 03:01:00,57.3,54.0,30.22,WNW,289,0.0,-999.0,88,-99.99,,,0.00,weatherlink.com 1.10,2013-08-17 07:01:00,
2013-08-17 03:16:00,57.3,54.0,30.22,WNW,289,0.0,-999.0,89,-99.99,,,0.00,weatherlink.com 1.10,2013-08-17 07:16:00,
2013-08-17 03:31:00,57.1,54.0,30.22,WNW,289,0.0,-999.0,89,-99.99,,,0.00,weatherlink.com 1.10,2013-08-17 07:31:00,
2013-08-17 03:46:00,56.9,54.0,30.22,WNW,289,0.0,-999.0,89,-99.99,,,0.00,weatherlink.com 1.10,2013-08-17 07:46:00,
2013-08-17 04:01:00,56.5,54.0,30.22,WNW,289,0.0,-999.0,90,-99.99,,,0.00,weatherlink.com 1.10,2013-08-17 08:01:00,
2013-08-17 04:16:00,56.4,54.0,30.22,WNW,289,0.0,-999.0,90,-99.99,,,0.00,weatherlink.com 1.10,2013-08-17 08:16:00,
2013-08-17 04:31:00,56.5,54.0,30.23,WNW,289,0.0,-999.0,90,-99.99,,,0.00,weatherlink.com 1.10,2013-08-17 08:31:00,
2013-08-17 04:46:00,56.6,54.0,30.22,WNW,289,0.0,-999.0,90,-99.99,,,0.00,weatherlink.com 1.10,2013-08-17 08:46:00,
2013-08-17 05:01:00,56.7,54.0,30.23,WNW,289,0.0,-999.0,90,-99.99,,,0.00,weatherlink.com 1.10,2013-08-17 09:01:00,
2013-08-17 05:16:00,56.4,53.0,30.23,WNW,289,0.0,-999.0,89,-99.99,,,0.00,weatherlink.com 1.10,2013-08-17 09:16:00,
2013-08-17 05:31:00,56.1,53.0,30.23,WNW,289,0.0,-999.0,90,-99.99,,,0.00,weatherlink.com 1.10,2013-08-17 09:31:00,
2013-08-17 05:46:00,55.7,53.0,30.23,WNW,289,0.0,-999.0,89,-99.99,,,0.00,weatherlink.com 1.10,2013-08-17 09:46:00,
2013-08-17 06:01:00,55.9,53.0,30.24,WNW,289,0.0,-999.0,89,-99.99,,,0.00,weatherlink.com 1.10,2013-08-17 10:01:00,
2013-08-17 06:16:00,56.0,53.0,30.23,WNW,289,0.0,-999.0,89,-99.99,,,0.00,weatherlink.com 1.10,2013-08-17 10:16:00,
2013-08-17 06:31:00,55.9,52.0,30.24,WNW,289,0.0,-999.0,88,-99.99,,,0.00,weatherlink.com 1.10,2013-08-17 10:31:00,
2013-08-17 06:46:00,56.2,53.0,30.24,WNW,289,0.0,-999.0,88,-99.99,,,0.00,weatherlink.com 1.10,2013-08-17 10:46:00,
2013-08-17 07:01:00,56.6,53.0,30.25,WNW,289,0.0,-999.0,87,-99.99,,,0.00,weatherlink.com 1.10,2013-08-17 11:01:00,
2013-08-17 07:16:00,56.5,53.0,30.25,WNW,289,0.0,-999.0,87,-99.99,,,0.00,weatherlink.com 1.10,2013-08-17 11:16:00,
2013-08-17 07:31:00,56.6,54.0,30.26,WNW,289,0.0,-999.0,89,-99.99,,,0.00,weatherlink.com 1.10,2013-08-17 11:31:00,
2013-08-17 07:46:00,57.0,54.0,30.26,WNW,289,0.0,-999.0,89,-99.99,,,0.00,weatherlink.com 1.10,2013-08-17 11:46:00,
2013-08-17 08:01:00,58.2,55.0,30.27,WNW,289,0.0,-999.0,89,-99.99,,,0.00,weatherlink.com 1.10,2013-08-17 12:01:00,
2013-08-17 08:16:00,59.1,55.0,30.27,WNW,289,0.0,-999.0,87,-99.99,,,0.00,weatherlink.com 1.10,2013-08-17 12:16:00,
2013-08-17 08:31:00,60.4,56.0,30.27,WNW,289,0.0,-999.0,84,-99.99,,,0.00,weatherlink.com 1.10,2013-08-17 12:31:00,
2013-08-17 08:46:00,61.8,56.0,30.27,WNW,290,1.0,-999.0,82,-99.99,,,0.00,weatherlink.com 1.10,2013-08-17 12:46:00,
2013-08-17 09:01:00,63.1,58.0,30.27,WNW,291,0.0,-999.0,82,-99.99,,,0.00,weatherlink.com 1.10,2013-08-17 13:01:00,
2013-08-17 09:16:00,64.7,58.0,30.27,WNW,301,0.0,-999.0,79,-99.99,,,0.00,weatherlink.com 1.10,2013-08-17 13:16:00,
2013-08-17 09:31:00,66.1,58.0,30.27,NNW,337,0.0,-999.0,75,-99.99,,,0.00,weatherlink.com 1.10,2013-08-17 13:31:00,
2013-08-17 09:46:00,67.6,58.0,30.28,North,359,0.0,-999.0,72,-99.99,,,0.00,weatherlink.com 1.10,2013-08-17 13:46:00,
2013-08-17 10:01:00,69.1,59.0,30.28,North,4,0.0,-999.0,69,-99.99,,,0.00,weatherlink.com 1.10,2013-08-17 14:01:00,
2013-08-17 10:16:00,70.9,58.0,30.28,North,4,0.0,-999.0,64,-99.99,,,0.00,weatherlink.com 1.10,2013-08-17 14:16:00,
2013-08-17 10:31:00,72.4,58.0,30.28,North,8,0.0,-999.0,60,-99.99,,,0.00,weatherlink.com 1.10,2013-08-17 14:31:00,
2013-08-17 10:46:00,73.7,61.0,30.28,North,9,0.0,-999.0,64,-99.99,,,0.00,weatherlink.com 1.10,2013-08-17 14:46:00,
2013-08-17 11:01:00,74.2,61.0,30.28,North,8,0.0,-999.0,63,-99.99,,,0.00,weatherlink.com 1.10,2013-08-17 15:01:00,
2013-08-17 11:16:00,75.0,58.0,30.28,NNE,12,5.0,-999.0,56,-99.99,,,0.00,weatherlink.com 1.10,2013-08-17 15:16:00,
2013-08-17 11:31:00,75.0,57.0,30.27,NNE,19,0.0,-999.0,54,-99.99,,,0.00,weatherlink.com 1.10,2013-08-17 15:31:00,
2013-08-17 11:46:00,76.0,59.0,30.27,NNE,25,0.0,-999.0,56,-99.99,,,0.00,weatherlink.com 1.10,2013-08-17 15:46:00,
2013-08-17 12:01:00,76.6,57.0,30.26,North,359,0.0,-999.0,51,-99.99,,,0.00,weatherlink.com 1.10,2013-08-17 16:01:00,
2013-08-17 12:16:00,77.4,57.0,30.27,North,354,0.0,-999.0,50,-99.99,,,0.00,weatherlink.com 1.10,2013-08-17 16:16:00,
2013-08-17 12:31:00,78.7,58.0,30.26,North,354,0.0,-999.0,50,-99.99,,,0.00,weatherlink.com 1.10,2013-08-17 16:31:00,
2013-08-17 12:46:00,76.2,59.0,30.26,NNE,20,0.0,-999.0,55,-99.99,,,0.00,weatherlink.com 1.10,2013-08-17 16:46:00,
2013-08-17 13:01:00,77.0,56.0,30.26,NE,39,0.0,-999.0,49,-99.99,,,0.00,weatherlink.com 1.10,2013-08-17 17:01:00,
2013-08-17 13:16:00,77.4,54.0,30.26,NNE,20,0.0,-999.0,45,-99.99,,,0.00,weatherlink.com 1.10,2013-08-17 17:16:00,
2013-08-17 13:31:00,77.2,55.0,30.26,NNE,18,0.0,-999.0,47,-99.99,,,0.00,weatherlink.com 1.10,2013-08-17 17:31:00,
2013-08-17 13:46:00,78.7,54.0,30.25,NNE,23,1.0,-999.0,43,-99.99,,,0.00,weatherlink.com 1.10,2013-08-17 17:46:00,
2013-08-17 14:01:00,77.1,59.0,30.26,NNE,25,0.0,-999.0,53,-99.99,,,0.00,weatherlink.com 1.10,2013-08-17 18:01:00,
2013-08-17 14:16:00,78.5,55.0,30.26,North,359,2.0,-999.0,44,-99.99,,,0.00,weatherlink.com 1.10,2013-08-17 18:16:00,
2013-08-17 14:31:00,77.4,54.0,30.25,North,4,0.0,-999.0,45,-99.99,,,0.00,weatherlink.com 1.10,2013-08-17 18:31:00,
2013-08-17 14:46:00,77.8,55.0,30.25,NNE,12,0.0,-999.0,45,-99.99,,,0.00,weatherlink.com 1.10,2013-08-17 18:46:00,
2013-08-17 15:01:00,79.7,54.0,30.24,North,359,0.0,-999.0,41,-99.99,,,0.00,weatherlink.com 1.10,2013-08-17 19:01:00,
2013-08-17 15:16:00,79.5,57.0,30.24,North,354,0.0,-999.0,46,-99.99,,,0.00,weatherlink.com 1.10,2013-08-17 19:16:00,
2013-08-17 15:31:00,79.3,57.0,30.23,North,354,0.0,-999.0,47,-99.99,,,0.00,weatherlink.com 1.10,2013-08-17 19:31:00,
2013-08-17 15:46:00,79.7,57.0,30.23,North,354,0.0,-999.0,46,-99.99,,,0.00,weatherlink.com 1.10,2013-08-17 19:46:00,
2013-08-17 16:01:00,79.2,56.0,30.23,North,354,0.0,-999.0,45,-99.99,,,0.00,weatherlink.com 1.10,2013-08-17 20:01:00,
2013-08-17 16:16:00,79.3,57.0,30.23,North,354,0.0,-999.0,46,-99.99,,,0.00,weatherlink.com 1.10,2013-08-17 20:16:00,
2013-08-17 16:31:00,79.1,55.0,30.23,North,354,0.0,-999.0,44,-99.99,,,0.00,weatherlink.com 1.10,2013-08-17 20:31:00,
2013-08-17 16:46:00,78.7,56.0,30.24,North,8,0.0,-999.0,45,-99.99,,,0.00,weatherlink.com 1.10,2013-08-17 20:46:00,
2013-08-17 17:01:00,78.6,55.0,30.24,North,4,0.0,-999.0,45,-99.99,,,0.00,weatherlink.com 1.10,2013-08-17 21:01:00,
2013-08-17 17:16:00,78.0,56.0,30.24,North,4,0.0,-999.0,47,-99.99,,,0.00,weatherlink.com 1.10,2013-08-17 21:16:00,
2013-08-17 17:31:00,78.0,59.0,30.24,North,359,0.0,-999.0,53,-99.99,,,0.00,weatherlink.com 1.10,2013-08-17 21:31:00,
2013-08-17 17:46:00,76.9,60.0,30.24,North,4,0.0,-999.0,56,-99.99,,,0.00,weatherlink.com 1.10,2013-08-17 21:46:00,
2013-08-17 18:01:00,75.8,58.0,30.24,North,4,0.0,-999.0,55,-99.99,,,0.00,weatherlink.com 1.10,2013-08-17 22:01:00,
2013-08-17 18:16:00,74.8,63.0,30.24,North,4,0.0,-999.0,66,-99.99,,,0.00,weatherlink.com 1.10,2013-08-17 22:16:00,
2013-08-17 18:31:00,73.1,62.0,30.24,North,4,0.0,-999.0,69,-99.99,,,0.00,weatherlink.com 1.10,2013-08-17 22:31:00,
2013-08-17 18:46:00,71.8,62.0,30.24,North,4,0.0,-999.0,71,-99.99,,,0.00,weatherlink.com 1.10,2013-08-17 22:46:00,
2013-08-17 19:01:00,71.1,61.0,30.23,North,359,0.0,-999.0,71,-99.99,,,0.00,weatherlink.com 1.10,2013-08-17 23:01:00,
2013-08-17 19:16:00,70.3,60.0,30.24,North,359,0.0,-999.0,69,-99.99,,,0.00,weatherlink.com 1.10,2013-08-17 23:16:00,
2013-08-17 19:31:00,69.5,58.0,30.24,North,4,0.0,-999.0,68,-99.99,,,0.00,weatherlink.com 1.10,2013-08-17 23:31:00,
2013-08-17 19:46:00,69.2,59.0,30.24,North,4,0.0,-999.0,70,-99.99,,,0.00,weatherlink.com 1.10,2013-08-17 23:46:00,
2013-08-17 20:01:00,69.0,59.0,30.24,North,4,0.0,-999.0,70,-99.99,,,0.00,weatherlink.com 1.10,2013-08-18 00:01:00,
2013-08-17 20:16:00,69.0,59.0,30.25,North,359,0.0,-999.0,70,-99.99,,,0.00,weatherlink.com 1.10,2013-08-18 00:16:00,
2013-08-17 20:31:00,68.9,59.0,30.25,North,359,0.0,-999.0,70,-99.99,,,0.00,weatherlink.com 1.10,2013-08-18 00:31:00,
2013-08-17 20:46:00,68.2,58.0,30.25,North,4,0.0,-999.0,71,-99.99,,,0.00,weatherlink.com 1.10,2013-08-18 00:46:00,
2013-08-17 21:01:00,67.7,60.0,30.25,North,4,0.0,-999.0,75,-99.99,,,0.00,weatherlink.com 1.10,2013-08-18 01:01:00,
2013-08-17 21:16:00,67.9,59.0,30.26,North,4,0.0,-999.0,74,-99.99,,,0.00,weatherlink.com 1.10,2013-08-18 01:16:00,
2013-08-17 21:31:00,67.4,59.0,30.26,North,4,0.0,-999.0,74,-99.99,,,0.00,weatherlink.com 1.10,2013-08-18 01:31:00,
2013-08-17 21:46:00,66.7,58.0,30.26,North,359,0.0,-999.0,74,-99.99,,,0.00,weatherlink.com 1.10,2013-08-18 01:46:00,
2013-08-17 22:01:00,66.2,58.0,30.26,North,4,0.0,-999.0,76,-99.99,,,0.00,weatherlink.com 1.10,2013-08-18 02:01:00,
2013-08-17 22:16:00,65.6,59.0,30.26,North,4,0.0,-999.0,79,-99.99,,,0.00,weatherlink.com 1.10,2013-08-18 02:16:00,
2013-08-17 22:31:00,65.4,58.0,30.27,North,4,0.0,-999.0,78,-99.99,,,0.00,weatherlink.com 1.10,2013-08-18 02:31:00,
2013-08-17 22:46:00,65.1,58.0,30.27,North,4,0.0,-999.0,79,-99.99,,,0.00,weatherlink.com 1.10,2013-08-18 02:46:00,
2013-08-17 23:01:00,64.9,58.0,30.27,North,359,0.0,-999.0,77,-99.99,,,0.00,weatherlink.com 1.10,2013-08-18 03:01:00,
2013-08-17 23:16:00,64.7,57.0,30.27,North,359,0.0,-999.0,77,-99.99,,,0.00,weatherlink.com 1.10,2013-08-18 03:16:00,
2013-08-17 23:31:00,64.2,58.0,30.27,North,4,0.0,-999.0,80,-99.99,,,0.00,weatherlink.com 1.10,2013-08-18 03:31:00,
2013-08-17 23:46:00,63.7,57.0,30.27,North,4,0.0,-999.0,80,-99.99,,,0.00,weatherlink.com 1.10,2013-08-18 03:46:00,